Date String (YYYY-MM-DD hh:mm:ss) UTC,Instrument flags,Ambient pressure (hPa),Sample flow (lpm),Bypass flow (lpm),Sample temperature (°C),Ambient temperature (°C),ASC tube jacket temperature (°C),LED temperature (°C),Box temperature (°C),Sample RH (%),Span deviation,Mass concentration (μg/m³),Mass concentration (μg/m³),Mass concentration (μg/m³)
DateTimeUTC,F1_M11,P_M11,Q1_M11,Q2_M11,T1_M11,T2_M11,T3_M11,T4_M11,T5_M11,U1_M11,ZSPAN_M11,X2_M11,X0_M11,X1_M11
2023-02-15 18:00:00,,0822.4,4.96,0.00,23.1,23.0,00.0,31.8,24.9,07.5,0000.0,0001.88,0004.83,0001.51
2023-02-15 18:01:00,,0822.4,5.03,0.00,23.1,22.4,00.0,31.8,24.8,07.4,0000.0,0001.90,0004.91,0001.51
2023-02-15 18:02:00,,0822.4,4.98,0.00,23.0,21.9,00.0,31.9,24.7,07.5,0000.0,0001.93,0004.90,0001.54
2023-02-15 18:03:00,,0822.4,4.99,0.00,23.0,21.5,00.0,31.9,24.6,07.5,0000.0,0001.95,0004.69,0001.55
2023-02-15 18:04:00,,0822.4,5.00,0.00,22.9,21.2,00.0,31.8,24.5,07.5,0000.0,0001.96,0005.43,0001.57
2023-02-15 18:05:00,,0822.4,5.02,0.00,22.9,21.0,00.0,31.8,24.5,07.5,0000.0,0001.94,0005.43,0001.57
2023-02-15 18:06:00,,0822.5,4.98,0.00,22.9,21.6,00.0,31.8,24.6,07.6,0000.0,0001.92,0004.79,0001.58
2023-02-15 18:07:00,,0822.5,4.96,0.00,23.0,22.7,00.0,31.8,24.8,07.6,0000.0,0001.92,0003.89,0001.60
2023-02-15 18:08:00,,0822.6,4.99,0.00,23.1,23.6,00.0,31.8,25.0,07.7,0000.0,0001.95,0003.97,0001.61
2023-02-15 18:09:00,,0822.6,4.97,0.00,23.1,23.2,00.0,31.8,25.0,07.7,0000.0,0001.99,0004.05,0001.63
2023-02-15 18:10:00,,0822.5,5.02,0.00,23.1,22.6,00.0,31.9,24.9,07.7,0000.0,0002.03,0004.36,0001.65
2023-02-15 18:11:00,,0822.5,5.00,0.00,23.1,22.1,00.0,31.9,24.8,07.8,0000.0,0002.07,0004.74,0001.65
2023-02-15 18:12:00,,0822.5,5.00,0.00,23.0,21.7,00.0,31.9,24.7,07.7,0000.0,0002.07,0004.73,0001.67
2023-02-15 18:13:00,,0822.5,5.00,0.00,23.0,21.4,00.0,31.9,24.6,07.7,0000.0,0002.08,0004.80,0001.67
2023-02-15 18:14:00,,0822.6,4.98,0.00,22.9,21.1,00.0,31.9,24.5,07.7,0000.0,0002.10,0004.91,0001.67
2023-02-15 18:15:00,,0822.5,5.00,0.00,22.9,20.9,00.0,31.8,24.4,07.7,0000.0,0002.17,0004.87,0001.69
2023-02-15 18:16:00,,0822.6,5.01,0.00,22.8,21.3,00.0,31.8,24.5,07.8,0000.0,0002.20,0004.73,0001.71
2023-02-15 18:17:00,,0822.6,4.98,0.00,22.9,22.5,00.0,31.8,24.8,07.7,0000.0,0002.26,0004.86,0001.72
2023-02-15 18:18:00,,0822.6,5.02,0.00,23.1,23.4,00.0,31.8,25.0,07.6,0000.0,0002.39,0005.30,0001.73
2023-02-15 18:19:00,,0822.5,4.99,0.00,23.1,23.2,00.0,31.8,25.0,07.5,0000.0,0002.40,0005.19,0001.74
2023-02-15 18:20:00,,0822.6,4.98,0.00,23.1,22.5,00.0,31.9,24.9,07.5,0000.0,0002.39,0005.03,0001.74
2023-02-15 18:21:00,,0822.6,5.00,0.00,23.0,22.0,00.0,31.9,24.8,07.6,0000.0,0002.37,0005.16,0001.73
2023-02-15 18:22:00,,0822.6,4.99,0.00,23.0,21.7,00.0,31.9,24.7,07.6,0000.0,0002.32,0005.19,0001.72
2023-02-15 18:23:00,,0822.5,4.99,0.00,22.9,21.4,00.0,31.9,24.6,07.7,0000.0,0002.35,0005.20,0001.73
2023-02-15 18:24:00,,0822.5,5.00,0.00,22.9,21.1,00.0,31.9,24.5,07.8,0000.0,0002.34,0005.11,0001.75
2023-02-15 18:25:00,,0822.5,5.04,0.00,22.9,21.0,00.0,31.8,24.5,07.8,0000.0,0002.32,0004.99,0001.77
2023-02-15 18:26:00,,0822.5,5.02,0.00,22.9,21.9,00.0,31.8,24.7,07.8,0000.0,0002.23,0004.45,0001.76
2023-02-15 18:27:00,,0822.6,5.00,0.00,23.0,23.1,00.0,31.8,25.0,07.7,0000.0,0002.24,0004.37,0001.76
2023-02-15 18:28:00,,0822.6,4.94,0.00,23.1,23.7,00.0,31.8,25.1,07.6,0000.0,0002.25,0004.40,0001.75
2023-02-15 18:29:00,,0822.6,4.96,0.00,23.2,23.2,00.0,31.9,25.0,07.6,0000.0,0002.16,0004.03,0001.73
2023-02-15 18:30:00,,0822.6,5.02,0.00,23.2,22.6,00.0,31.9,24.9,07.6,0000.0,0002.16,0004.01,0001.72
2023-02-15 18:31:00,,0822.6,5.00,0.00,23.1,22.0,00.0,31.9,24.8,07.7,0000.0,0002.17,0004.06,0001.71
2023-02-15 18:32:00,,0822.5,5.01,0.00,23.1,21.6,00.0,31.9,24.7,07.7,0000.0,0002.17,0003.72,0001.70
2023-02-15 18:33:00,,0822.5,4.98,0.00,23.0,21.4,00.0,31.9,24.6,07.7,0000.0,0002.19,0003.47,0001.69
2023-02-15 18:34:00,,0822.5,4.99,0.00,23.0,21.1,00.0,31.9,24.5,07.7,0000.0,0002.15,0003.79,0001.68
2023-02-15 18:35:00,,0822.5,4.99,0.00,22.9,21.3,00.0,31.9,24.6,07.7,0000.0,0002.15,0003.92,0001.66
2023-02-15 18:36:00,,0822.6,5.03,0.00,23.0,22.5,00.0,31.8,24.8,07.5,0000.0,0002.17,0004.89,0001.64
2023-02-15 18:37:00,,0822.6,4.93,0.00,23.1,23.5,00.0,31.8,25.1,07.3,0000.0,0002.19,0005.08,0001.62
2023-02-15 18:38:00,,0822.6,5.03,0.00,23.2,23.5,00.0,31.9,25.1,07.4,0000.0,0002.15,0005.03,0001.62
2023-02-15 18:39:00,,0822.5,5.02,0.00,23.2,22.9,00.0,31.9,25.0,07.5,0000.0,0002.12,0005.13,0001.61
2023-02-15 18:40:00,,0822.5,5.01,0.00,23.2,22.4,00.0,31.9,24.9,07.5,0000.0,0002.09,0005.17,0001.62
2023-02-15 18:41:00,,0822.5,5.00,0.00,23.1,21.9,00.0,31.9,24.8,07.4,0000.0,0002.04,0005.04,0001.61
2023-02-15 18:42:00,,0822.5,4.98,0.00,23.1,21.5,00.0,31.9,24.7,07.4,0000.0,0002.01,0004.97,0001.61
2023-02-15 18:43:00,,0822.6,5.00,0.00,23.0,21.3,00.0,31.9,24.6,07.5,0000.0,0002.01,0005.10,0001.62
2023-02-15 18:44:00,,0822.6,5.02,0.00,23.0,21.3,00.0,31.9,24.6,07.5,0000.0,0002.05,0004.97,0001.63
2023-02-15 18:45:00,,0822.6,4.98,0.00,23.0,22.4,00.0,31.9,24.9,07.6,0000.0,0002.09,0004.64,0001.63
2023-02-15 18:46:00,,0822.6,4.95,0.00,23.2,23.4,00.0,31.9,25.1,07.5,0000.0,0002.08,0004.54,0001.63
2023-02-15 18:47:00,,0822.6,4.99,0.00,23.2,23.5,00.0,31.9,25.1,07.5,0000.0,0002.07,0003.66,0001.64
2023-02-15 18:48:00,,0822.6,5.01,0.00,23.2,22.9,00.0,32.0,25.0,07.5,0000.0,0002.09,0003.74,0001.64
2023-02-15 18:49:00,,0822.6,5.00,0.00,23.2,22.3,00.0,32.0,24.9,07.5,0000.0,0002.10,0003.74,0001.65
2023-02-15 18:50:00,,0822.5,5.02,0.00,23.1,21.9,00.0,32.0,24.8,07.5,0000.0,0002.08,0003.65,0001.65
2023-02-15 18:51:00,,0822.4,4.99,0.00,23.1,21.6,00.0,32.0,24.7,07.4,0000.0,0002.07,0003.57,0001.65
2023-02-15 18:52:00,,0822.4,5.01,0.00,23.0,21.4,00.0,32.0,24.6,07.5,0000.0,0002.09,0003.61,0001.65
2023-02-15 18:53:00,,0822.4,5.02,0.00,23.0,21.2,00.0,32.0,24.6,07.6,0000.0,0002.10,0003.62,0001.65
2023-02-15 18:54:00,,0822.4,5.02,0.00,22.9,20.9,00.0,31.9,24.5,07.6,0000.0,0002.05,0003.38,0001.65
2023-02-15 18:55:00,,0822.4,5.01,0.00,22.9,21.4,00.0,31.9,24.6,07.6,0000.0,0002.01,0003.20,0001.65
2023-02-15 18:56:00,,0822.4,5.00,0.00,23.0,22.6,00.0,31.9,24.9,07.6,0000.0,0001.97,0003.20,0001.66
2023-02-15 18:57:00,,0822.5,4.99,0.00,23.2,23.6,00.0,31.9,25.1,07.6,0000.0,0001.98,0003.37,0001.66
2023-02-15 18:58:00,,0822.5,4.98,0.00,23.2,23.3,00.0,31.9,25.1,07.4,0000.0,0001.99,0003.32,0001.68
2023-02-15 18:59:00,,0822.6,4.97,0.00,23.2,22.7,00.0,32.0,25.0,07.3,0000.0,0002.01,0003.18,0001.70
